weather.gov     
National Weather Service

Terminal Aerodrome Forecast
NWS Homepage
This page is being discontinued on March 12, 2014.
The same data is available at this site. Please update your bookmarks.
Thank you, and we apologize for the inconvenience.
Please send an email to SR-SRH.Webmaster@noaa.gov with any concerns.


Current Version
Previous Version:    01  02  03  04  05  06  07  08  09  10  11  12  13  14  15  16  17  18  19  20  21  22  23  24  25  26  27  28  29  30  
   31  32  33  34  35  
[Printable]
463
FTUS41 KBOX 280808 AAB
TAFFMH
TAF AMD
KFMH 280808Z 2808/2906 19007KT 4SM BR BKN004
     FM281100 18010KT 2SM -SHRA BR VCTS OVC003CB
     FM281300 18012KT 3SM -SHRA BR OVC006
     FM281700 20016KT P6SM BKN008
     FM282200 21016KT P6SM SCT008
     FM290300 23014G21KT P6SM SCT250=


463
FTUS41 KBOX 280808 AAB
TAFFMH
TAF AMD
KFMH 280808Z 2808/2906 19007KT 4SM BR BKN004
     FM281100 18010KT 2SM -SHRA BR VCTS OVC003CB
     FM281300 18012KT 3SM -SHRA BR OVC006
     FM281700 20016KT P6SM BKN008
     FM282200 21016KT P6SM SCT008
     FM290300 23014G21KT P6SM SCT250=




U.S. Dept. of Commerce
NOAA National Weather Service
1325 East West Highway
Silver Spring, MD 20910
E-mail: w-nws.webmaster@noaa.gov
Page last modified: May 16, 2007
NATIONAL WEATHER SERVICE: for Safety, for Work, for Fun - FOR LIFE